036  
ASUS45 KABQ 192210  
RWRNM  
NEW MEXICO REGIONAL WEATHER ROUNDUP  
NATIONAL WEATHER SERVICE ALBUQUERQUE NM  
400 PM MDT MON AUG 19 2019  
 
NOTE: "FAIR" MEANS FEW OR NO CLOUDS BELOW 12,000 FEET AGL WITH NO  
SIGNIFICANT WEATHER OR S TO VISION.  
 
THIS PRODUCT IS RELEASED AS TWO VERSIONS. ONE VERSION NEAR  
THE TOP OF THE HOUR CONTAINING PRELIMINARY DATA FROM ALBUQUERQUE  
AND OTHER STATIONS. A FINAL VERSION WITH ADDITIONAL DATA IS  
ISSUED ABOUT 10 MINUTES AFTER THE HOUR.  
 
NMZ501-503-504-510>518-192300-  
NORTHWEST PLATEAU/NORTHCENTRAL MOUNTAINS  
 
CITY SKY/WX TMP DP RH WIND PRES REMARKS
 
FARMINGTON FAIR 92 25 9 W8 30.13F  
LOS ALAMOS N/A 87 30 12 S14 30.27F  
SANTA FE FAIR 93 34 12 SW10G21 30.19F  
TAOS N/A 90 30 11 VRB5G24 30.26F  
ANGEL FIRE FAIR 76 34 21 W13G18 30.37F  
 

 
NMZ402-403-502-505>509-192300-  
WESTCENTRAL MOUNTAINS/SOUTHWEST MOUNTAINS  
 
CITY SKY/WX TMP DP RH WIND PRES REMARKS
 
GALLUP FAIR 91 24 9 VRB7 30.22F  
GRANTS FAIR 89 29 11 SE5 30.21F  
SILVER CITY FAIR 94 36 12 S6 30.13F  
 

 
NMZ407-409-411-412-192300-  
SOUTHERN DESERTS  
 
CITY SKY/WX TMP DP RH WIND PRES REMARKS
 
DEMING FAIR 98 35 11 VRB3 30.04F  
LAS CRUCES FAIR 99 40 13 E9 30.07F  
HOLLOMAN AFB PTSUNNY 93 54 26 NE13 30.07F  
ALAMOGORDO FAIR 93 48 21 NE14 30.07F  
T OR C FAIR 98 38 12 SE16G28 30.08F  
 

 
NMZ519>523-192300-  
CENTRAL VALLEYS/CENTRAL HIGHLANDS  
 
CITY SKY/WX TMP DP RH WIND PRES REMARKS
 
ALBUQUERQUE FAIR 94 37 13 SW6 30.11F  
DOUBLE EAGLE MOSUNNY 91 37 15 SW10 30.16F  
MORIARTY ARPT FAIR 93 34 12 S13 30.19F  
CLINES CORNERS CLOUDY 86 34 15 S12G20 30.27F  
BELEN FAIR 96 34 11 W8G16 30.11F  
SOCORRO FAIR 96 37 12 SE18 30.09F  
 

 
NMZ524>526-539-540-192300-  
SOUTHCENTRAL MOUNTAINS  
 
CITY SKY/WX TMP DP RH WIND PRES REMARKS
 
RUIDOSO PTSUNNY 72 55 56 W6 30.33F  
 

 
NMZ527>531-192300-  
NORTHEAST HIGHLANDS/NORTHEAST PLAINS  
 
CITY SKY/WX TMP DP RH WIND PRES REMARKS
 
LAS VEGAS FAIR 91 35 13 SW20G29 30.24F  
RATON FAIR 91 39 16 S17G28 30.15F  
CLAYTON FAIR 96 44 16 S23G29 30.07F  
 

 
NMZ532>537-192300-  
EASTCENTRAL PLAINS  
 
CITY SKY/WX TMP DP RH WIND PRES REMARKS
 
TUCUMCARI FAIR 96 47 18 SW23G31 30.02F  
CANNON AFB PTSUNNY 92 51 24 SW7 30.10F  
CLOVIS AIRPORT FAIR 93 51 23 W12 30.08F  
 

 
NMZ028-029-538-192300-  
SOUTHEAST PLAINS  
 
CITY SKY/WX TMP DP RH WIND PRES REMARKS
 
ROSWELL FAIR 99 48 17 NW8 30.01F HX 95  
ARTESIA FAIR 100 50 18 E9 30.00F HX 97  
CARLSBAD FAIR 103 51 17 SE9 29.95F HX 100  
HOBBS MOSUNNY 100 41 13 SE14G22 30.01S HX 96  
 

 
 
 
CLICK HERE TO GO TO PREVIOUS BULLETINS.

The Nexlab NM Page Main Text Page